Regional Weather Roundup
Issued by NWS Sterling, VA

Home | Current Version | Previous Version | Text Only | Print | Product List | Glossary Off
Versions: 1 2 3 4 5 6 7 8 9 10 11 12 13 14 15 16 17 18 19 20 21 22 23 24 25 26 27 28 29 30 31 32 33 34 35 36 37 38 39 40 41 42 43 44 45 46 47 48 49 50

000
ASUS41 KLWX 281410
RWRLWX

REGIONAL WEATHER ROUNDUP
NATIONAL WEATHER SERVICE BALTIMORE MD/WASHINGTON DC
900 AM EST FRI NOV 28 2014

Note: "FAIR" indicates few or no clouds below 12,000 feet
with no significant weather and/or obstructions to visibility.
 TC=TEMPERATURE CELSIUS

 * =Non NWS site. Station does not report precipitation (e.g. rain,
    snow, etc.), thunder, or fog.

DCZ001-MDZ009-015-VAZ040>042-051-053>054-281500-
WASHINGTON METRO

CITY           SKY/WX    TMP DP  RH WIND       PRES   REMARKS
WASHINGTON NAT MOSUNNY   38  20  48 NW9G20    30.32R
DULLES         PTSUNNY   34  19  54 W16       30.31R WCI  24
ANDREWS AFB    SUNNY     36  20  53 NW13G23   30.29R WCI  27
FT BELVOIR     SUNNY     37  19  50 NW8       30.32R
QUANTICO       SUNNY     37  21  52 NW9       30.34R
COLLEGE PARK*  SUNNY     36  23  60 W12G17    30.30R WCI  27
LEESBURG*      CLOUDY    34  25  69 W12       30.32R WCI  25
MANASSAS*      SUNNY     36  23  60 NW6       30.32
GAITHERSBURG*  CLOUDY    30  23  74 NW6       30.33R

$$

MDZ006>007-011-014-281500-
BALTIMORE METRO

CITY           SKY/WX    TMP DP  RH WIND       PRES   REMARKS
BWI AIRPORT    MOSUNNY   36  22  56 W16       30.28R WCI  26
MD SCIENCE CTR   N/A     35  21  56 MISG      30.30R
MARTIN STATE   MOSUNNY   37  27  65 NW10G21   30.30R
ANNAPOLIS      SUNNY     37  22  54 NW14G20   30.28R WCI  28
FORT MEADE*      N/A     34  25  69 NW14G20   30.32  WCI  24

$$

MDZ012-015-019>023-281500-
MARYLAND EASTERN SHORE

CITY           SKY/WX    TMP DP  RH WIND       PRES   REMARKS
OCEAN CITY     SUNNY     36  25  64 NW12G18   30.26R WCI  28
SALISBURY      SUNNY     38  24  57 NW17      30.26R WCI  28
BAY BRIDGE AP*   N/A     36  23  60 NW16G23   30.29R WCI  26
CAMBRIDGE*     SUNNY     37  25  60 NW14      30.27R WCI  29
EASTON*        SUNNY     37  27  65 NW12G20   30.31R

$$

MDZ017>025-281500-
SOUTHERN MARYLAND

CITY           SKY/WX    TMP DP  RH WIND       PRES   REMARKS
PATUXENT RIVER MOSUNNY   36  21  54 NW16      30.29R WCI  26
ST INIGOES     SUNNY     37  20  50 NW10G20   30.29R
LEONARDTOWN*   SUNNY     36  21  55 NW9G17    30.30S WCI  29

$$

MDZ003>005-281500-
NORTH CENTRAL MARYLAND

CITY           SKY/WX    TMP DP  RH WIND       PRES   REMARKS
FREDERICK*     PTSUNNY   46  21  36 N6        30.33R
HAGERSTOWN APT MOSUNNY   32  18  56 NW16G24   30.28R WCI  21
WESTMINSTER*   MOSUNNY   30  25  80 NW6       30.26R

$$

MDZ501>502-281500-
WESTERN MARYLAND

CITY           SKY/WX    TMP DP  RH WIND       PRES   REMARKS
OAKLAND*       FOG       19 N/A N/A W8G21     30.17S VSB 3/4 WCI   9
CUMBERLAND*    PTSUNNY   32  21  64 NW7       30.34R

$$

VAZ025>031-281500-
SHENANDOAH VALLEY

CITY           SKY/WX    TMP DP  RH WIND       PRES   REMARKS
WINCHESTER*    SUNNY     34  18  51 NW18G25   30.28F WCI  23
FRONT ROYAL*   FAIR      32  18  55 W8G20     30.29S WCI  25
LURAY*         CLOUDY    34  21  60 W6G21     30.31R
NEW MARKET*    CLOUDY    31  19  61 W5        30.31R
STAUNTON*      CLOUDY    30  15  53 W5        30.33R
WAYNESBORO*    PTSUNNY   29  14  53 NW8       30.29R WCI  21

$$

WVZ021-048>050-054>055-281500-
EASTERN WEST VIRGINIA PANHANDLE

CITY           SKY/WX    TMP DP  RH WIND       PRES   REMARKS
MARTINSBURG    FLURRIES  32  23  69 NW9       30.30R WCI  24
PETERSBURG*    FLURRIES  31  15  53 NW12G17   30.32S WCI  21

$$

VAZ036>039-050-281500-
CENTRAL FOOTHILLS

CITY           SKY/WX    TMP DP  RH WIND       PRES   REMARKS
CHARLOTTESVILL MOSUNNY   34  17  50 VRB3      30.32R
CULPEPER*      SUNNY     36  21  55 NW3       30.33R
ORANGE*        SUNNY     36  21  55 W6        30.33R
GORDONSVILLE*  PTSUNNY   34  19  53 NW6       30.32R
WARRENTON*     FAIR      37  27  68 W10G20    30.32R

$$

VAZ055>057-281500-
NORTH AND CENTRAL PIEDMONT

CITY           SKY/WX    TMP DP  RH WIND       PRES   REMARKS
FREDERICKSBRG* SUNNY     37  24  60 NW8       30.33R
STAFFORD*      SUNNY     33  23  66 CALM      30.37R

$$

NCZ024-NYZ072-PAZ021-071-VAZ022-071-281500-
OTHER REGIONAL OBSERVATIONS

CITY           SKY/WX    TMP DP  RH WIND       PRES   REMARKS
NEW YORK CITY  SUNNY     33  21  61 MISG      30.19R
PHILADELPHIA   MOSUNNY   36  22  56 NW20      30.25R WCI  25
PITTSBURGH     MOSUNNY   23  14  68 NW14      30.31S WCI  11
ROANOKE        PTSUNNY   32  17  54 NW6       30.35R
RICHMOND       SUNNY     37  24  59 NW8       30.32R
RALEIGH        MOSUNNY   34  23  64 CALM      30.36R

$$

ANZ530>537-281500-
MARINE OBSERVATIONS

STATION/POSITION TIME  TEMP    WIND        PRES
                       AIR SEA DIR/SP/G
                 (UTC) (F)     (DEG/KT/KT) (MB)
THOMAS PT LIGHT  1400   35 45  310/ 18/ 22 1026.3R
BALT KEY BRIDGE  1400   36     290/ 18/ 21 1025.2R
COVE POINT       1400   35     330/ 12/ 15 1025.4S
LEWISETTA        1400   38 45  340/ 13/ 21 1025.9F
SOLOMONS ISLAND  1400      47                N/A
PINEY POINT      1400          330/ 21/ 24   N/A

$$



USA.gov is the U.S. government's official web portal to all federal, state and local government web resources and services.